• In Uzbekistan
  • List of Countries
  • For 7 days
  • Water Temperature
  • Satellite Maps
  • Weather Map
  • Weather Widgets
  • user-avatar
    Login

    Hourly Weather Aichach

    Today, 18 November, Saturday

    Time Temperature Precipitation Wind Pressure Humidity
    00:00 0°C° 0 mm 0 mps 726 mmHg 89%
    01:00 0°C° 0 mm 0 mps 725 mmHg 89%
    02:00 0°C° 0 mm 0 mps 725 mmHg 89%
    03:00 +1°C° 0 mm 1 mps 725 mmHg 89%
    04:00 +1°C° 0 mm 1 mps 725 mmHg 89%
    05:00 +1°C° 0 mm 1 mps 725 mmHg 89%
    06:00 +1°C° 0 mm 1 mps 724 mmHg 89%
    07:00 +1°C° 0 mm 1 mps 724 mmHg 89%
    08:00 +1°C° 0 mm 2 mps 724 mmHg 87%
    09:00 +2°C° 0 mm 2 mps 724 mmHg 85%
    10:00 +3°C° 0 mm 2 mps 724 mmHg 82%
    11:00 +3°C° 0 mm 3 mps 724 mmHg 80%
    12:00 +3°C° 0 mm 3 mps 723 mmHg 77%
    13:00 +4°C° 0 mm 4 mps 723 mmHg 75%
    14:00 +4°C° 0 mm 3 mps 723 mmHg 77%
    15:00 +3°C° 0 mm 3 mps 722 mmHg 80%
    16:00 +3°C° 0 mm 3 mps 722 mmHg 82%
    17:00 +2°C° 0 mm 3 mps 722 mmHg 85%
    18:00 0°C° 0 mm 4 mps 722 mmHg 87%
    19:00 -1°C° 0 mm 4 mps 723 mmHg 90%
    20:00 -1°C° 0 mm 4 mps 723 mmHg 89%
    21:00 -1°C° 0 mm 5 mps 723 mmHg 88%
    22:00 -1°C° 0 mm 5 mps 723 mmHg 87%
    23:00 -1°C° 0 mm 5 mps 722 mmHg 86%

    Tomorrow, 19 November, Sunday

    Time Temperature Precipitation Wind Pressure Humidity
    00:00 0°C° 0 mm 5 mps 722 mmHg 85%
    01:00 0°C° 0 mm 5 mps 722 mmHg 84%
    02:00 0°C° 0.5 mm 5 mps 721 mmHg 85%
    03:00 0°C° 0.5 mm 5 mps 721 mmHg 86%
    04:00 0°C° 0.5 mm 5 mps 720 mmHg 86%
    05:00 0°C° 0.6 mm 5 mps 720 mmHg 88%
    06:00 0°C° 0.6 mm 5 mps 720 mmHg 89%
    07:00 -1°C° 0.6 mm 6 mps 720 mmHg 90%
    08:00 +1°C° 0.4 mm 5 mps 720 mmHg 90%
    09:00 +1°C° 0.4 mm 5 mps 720 mmHg 89%
    10:00 +1°C° 0.4 mm 5 mps 721 mmHg 89%
    11:00 +2°C° 0.2 mm 5 mps 721 mmHg 85%
    12:00 +2°C° 0.2 mm 5 mps 721 mmHg 82%
    13:00 +2°C° 0.2 mm 6 mps 721 mmHg 78%
    14:00 +2°C° 0 mm 5 mps 721 mmHg 80%
    15:00 +1°C° 0 mm 5 mps 722 mmHg 82%
    16:00 +1°C° 0 mm 4 mps 722 mmHg 83%
    17:00 0°C° 0 mm 5 mps 722 mmHg 84%
    18:00 0°C° 0 mm 5 mps 723 mmHg 85%
    19:00 -1°C° 0 mm 5 mps 723 mmHg 86%
    20:00 -1°C° 0 mm 5 mps 723 mmHg 87%
    21:00 -1°C° 0 mm 5 mps 724 mmHg 87%
    22:00 -1°C° 0 mm 5 mps 724 mmHg 88%
    23:00 -1°C° 0 mm 5 mps 724 mmHg 88%

    Day after tomorrow, 20 November, Monday

    Time Temperature Precipitation Wind Pressure Humidity
    00:00 -1°C° 0 mm 5 mps 724 mmHg 89%
    01:00 -1°C° 0 mm 5 mps 725 mmHg 89%
    02:00 -1°C° 0 mm 5 mps 725 mmHg 90%
    03:00 -1°C° 0 mm 5 mps 725 mmHg 91%
    04:00 -2°C° 0 mm 4 mps 725 mmHg 91%
    05:00 -2°C° 0 mm 4 mps 725 mmHg 92%
    06:00 -2°C° 0 mm 4 mps 725 mmHg 92%
    07:00 -3°C° 0 mm 4 mps 725 mmHg 92%
    08:00 -2°C° 0 mm 4 mps 725 mmHg 89%
    09:00 -1°C° 0 mm 4 mps 725 mmHg 86%
    10:00 0°C° 0 mm 4 mps 725 mmHg 83%
    11:00 +1°C° 0 mm 4 mps 724 mmHg 82%
    12:00 +2°C° 0 mm 3 mps 724 mmHg 80%
    13:00 +2°C° 0 mm 3 mps 723 mmHg 79%
    14:00 +2°C° 0.2 mm 3 mps 723 mmHg 80%
    15:00 +1°C° 0.2 mm 4 mps 722 mmHg 81%
    16:00 +1°C° 0.2 mm 4 mps 722 mmHg 82%
    17:00 +1°C° 0.2 mm 4 mps 722 mmHg 82%
    18:00 +1°C° 0.2 mm 5 mps 722 mmHg 82%
    19:00 +1°C° 0.2 mm 5 mps 721 mmHg 82%
    20:00 +2°C° 0.1 mm 5 mps 721 mmHg 82%
    21:00 +2°C° 0.1 mm 6 mps 721 mmHg 82%
    22:00 +2°C° 0.1 mm 6 mps 721 mmHg 82%
    23:00 +2°C° 0.4 mm 6 mps 721 mmHg 82%

    21 November, Tuesday

    Time Temperature Precipitation Wind Pressure Humidity
    00:00 +3°C° 0.4 mm 6 mps 721 mmHg 83%
    01:00 +3°C° 0.4 mm 6 mps 720 mmHg 84%
    02:00 +3°C° 0.6 mm 6 mps 720 mmHg 85%
    03:00 +3°C° 0.6 mm 7 mps 720 mmHg 85%
    04:00 +4°C° 0.6 mm 7 mps 720 mmHg 86%
    05:00 +4°C° 0.2 mm 7 mps 721 mmHg 86%
    06:00 +4°C° 0.2 mm 7 mps 721 mmHg 86%
    07:00 +4°C° 0.2 mm 7 mps 721 mmHg 86%
    08:00 +4°C° 0.3 mm 7 mps 721 mmHg 86%
    09:00 +5°C° 0.3 mm 7 mps 721 mmHg 85%
    10:00 +5°C° 0.3 mm 6 mps 721 mmHg 85%
    11:00 +5°C° 0.1 mm 6 mps 721 mmHg 84%
    12:00 +5°C° 0.1 mm 6 mps 721 mmHg 84%
    13:00 +6°C° 0.1 mm 5 mps 721 mmHg 83%
    14:00 +6°C° 0.1 mm 5 mps 721 mmHg 83%
    15:00 +6°C° 0.1 mm 5 mps 721 mmHg 83%
    16:00 +6°C° 0.1 mm 4 mps 721 mmHg 84%
    17:00 +6°C° 0 mm 4 mps 721 mmHg 84%
    18:00 +7°C° 0 mm 3 mps 721 mmHg 85%
    19:00 +5°C° 0 mm 3 mps 721 mmHg 86%
    20:00 +5°C° 0 mm 3 mps 721 mmHg 86%
    21:00 +4°C° 0 mm 3 mps 721 mmHg 86%
    22:00 +3°C° 0 mm 3 mps 721 mmHg 87%
    23:00 +3°C° 0 mm 3 mps 721 mmHg 86%

    22 November, Wednesday

    Time Temperature Precipitation Wind Pressure Humidity
    00:00 +3°C° 0 mm 3 mps 721 mmHg 86%
    01:00 +3°C° 0 mm 3 mps 721 mmHg 85%
    02:00 +2°C° 0 mm 3 mps 720 mmHg 85%
    03:00 +2°C° 0 mm 3 mps 720 mmHg 84%
    04:00 +2°C° 0 mm 3 mps 720 mmHg 84%
    05:00 +2°C° 0 mm 3 mps 720 mmHg 83%
    06:00 +2°C° 0 mm 3 mps 720 mmHg 83%
    07:00 +2°C° 0 mm 3 mps 720 mmHg 83%
    08:00 +3°C° 0 mm 3 mps 720 mmHg 79%
    09:00 +4°C° 0 mm 3 mps 720 mmHg 75%
    10:00 +7°C° 0 mm 3 mps 720 mmHg 72%
    11:00 +8°C° 0 mm 3 mps 720 mmHg 69%
    12:00 +9°C° 0 mm 3 mps 720 mmHg 67%
    13:00 +11°C° 0 mm 3 mps 720 mmHg 65%
    14:00 +10°C° 0 mm 2 mps 720 mmHg 69%
    15:00 +9°C° 0 mm 2 mps 720 mmHg 73%
    16:00 +8°C° 0 mm 2 mps 719 mmHg 77%
    17:00 +7°C° 0 mm 2 mps 719 mmHg 78%
    18:00 +6°C° 0 mm 2 mps 720 mmHg 79%
    19:00 +5°C° 0 mm 2 mps 720 mmHg 79%
    20:00 +5°C° 0 mm 2 mps 720 mmHg 79%
    21:00 +5°C° 0 mm 2 mps 720 mmHg 79%
    22:00 +4°C° 0 mm 2 mps 720 mmHg 78%
    23:00 +4°C° 0 mm 2 mps 719 mmHg 77%

    23 November, Thursday

    Time Temperature Precipitation Wind Pressure Humidity
    00:00 +4°C° 0 mm 2 mps 719 mmHg 77%
    01:00 +4°C° 0 mm 2 mps 719 mmHg 76%
    02:00 +3°C° 0 mm 2 mps 719 mmHg 76%
    03:00 +4°C° 0 mm 1 mps 719 mmHg 75%
    04:00 +4°C° 0 mm 1 mps 719 mmHg 75%
    05:00 +4°C° 0 mm 1 mps 719 mmHg 75%
    06:00 +4°C° 0 mm 1 mps 719 mmHg 75%
    07:00 +3°C° 0 mm 1 mps 719 mmHg 75%
    08:00 +5°C° 0 mm 1 mps 719 mmHg 73%
    09:00 +6°C° 0 mm 1 mps 719 mmHg 71%
    10:00 +7°C° 0 mm 1 mps 719 mmHg 69%
    11:00 +8°C° 0 mm 1 mps 719 mmHg 67%
    12:00 +9°C° 0 mm 1 mps 719 mmHg 65%
    13:00 +9°C° 0 mm 2 mps 719 mmHg 62%
    14:00 +9°C° 0 mm 2 mps 719 mmHg 67%
    15:00 +8°C° 0 mm 2 mps 719 mmHg 73%
    16:00 +7°C° 0 mm 2 mps 719 mmHg 78%
    17:00 +6°C° 0 mm 2 mps 719 mmHg 79%
    18:00 +6°C° 0 mm 2 mps 720 mmHg 81%
    19:00 +5°C° 0 mm 2 mps 720 mmHg 83%
    20:00 +5°C° 0 mm 2 mps 720 mmHg 83%
    21:00 +5°C° 0 mm 2 mps 721 mmHg 83%
    22:00 +5°C° 0 mm 2 mps 721 mmHg 83%
    23:00 +5°C° 0 mm 2 mps 721 mmHg 83%
    Show more